Location: Gleizolles
(44.4833°N, 6.7667°E)
Time: 12:26:43
(UTC+00:00)

Envisat - Pass Details

Date: 11 December 2021
Orbit: 764 x 766 km, 98.2° (Epoch: 28 January)

Event Time Altitude Azimuth Distance (km) Brightness Sun altitude
Rises 04:31:07 0° 14° (NNE) 3,244 6.3 -25.5°
Reaches altitude 10° 04:33:26 10° 16° (NNE) 2,313 5.6 -25.1°
Maximum altitude 04:38:32 78° 103° (ESE) 787 3.0 -24.2°
Drops below altitude 10° 04:43:36 10° 190° (S) 2,294 5.5 -23.3°
Sets 04:45:54 0° 191° (SSW) 3,216 6.2 -22.9°
